Location: Pcim
(49.7500°N, 19.9670°E)
Time: 19:32:48
(UTC+02:00)

AO-91 - Pass Details

Date: 27 April 2024
Orbit: 441 x 737 km, 97.6° (Epoch: 20 May)

Event Time Altitude Azimuth Distance (km) Brightness Sun altitude
Rises 22:55:22 0° 7° (N) 2,448 ? -22.2°
Reaches altitude 10° 22:57:24 10° 1° (N) 1,581 ? -22.3°
Maximum altitude 23:00:37 44° 289° (WNW) 650 ? -22.6°
Enters shadow 23:00:59 42° 268° (W) 673 ? -22.6°
